{"data":{"norad_id":59162,"intl_designator":"2024-044L","name":"STARLINK-31272","alt_names":[],"object_type":"PAYLOAD","status":"ACTIVE","operator":null,"country":"US","launch_date":"2024-03-04","launch_site_code":"AFETR","launch_vehicle":null,"mission":null,"orbit_class":"UNKNOWN","rcs_meters":null,"size_class":null,"mass_kg":null,"dimensions":null,"purposes":["comms"],"wikipedia_slug":null,"has_3d_model":false,"image_url":null,"decayed_at":null,"tle_current":{"epoch":"2026-05-25T02:16:02.869824Z","epoch_age_seconds":77278,"freshness":"FRESH","line1":"1 59162U 24044L   26145.09447766  .00001343  00000+0  58317-4 0  9996","line2":"2 59162  43.0046  35.2819 0001756 270.8835  89.1815 15.27588607125258","mean_motion":15.27588607,"eccentricity":0.0001756,"inclination_deg":43.0046,"raan_deg":35.2819,"arg_perigee_deg":270.8835,"mean_anomaly_deg":89.1815,"bstar":5.8317e-5,"rev_number":12525,"period_min":94.266217579875,"perigee_km":481.81850395347,"apogee_km":484.22814345915,"semimajor_km":6861.1603237063,"source":"CELESTRAK","updated_at":"2026-05-25T13:38:18.834498Z"}}}